Weather History for KGGG - January, 2014

Change the Weather History Date:

Sunday, January 12, 2014

  Actual Average Record
Temperature  
Mean Temperature 54 °F 46 °F  
Max Temperature 72 °F 57 °F 85 °F (1911)
Min Temperature 36 °F 36 °F 7 °F (1918)
Degree Days  
Heating Degree Days 11 19  
Month to date heating degree days 254 228  
Since 1 July heating degree days 1255 1134  
Cooling Degree Days 0 0  
Month to date cooling degree days 0 0  
Year to date cooling degree days 0 0  
Growing Degree Days 4 (Base 50)    
Moisture  
Dew Point 34 °F    
Average Humidity 51    
Maximum Humidity 82    
Minimum Humidity 20    
Precipitation  
Precipitation T in 0.11 in 2.05 in (1921)
Month to date precipitation 0.42 1.24  
Year to date precipitation 0.42 1.24  
Snow  
Snow 0.00 in - - ()
Month to date snowfall T  
Since 1 July snowfall T  
Snow Depth 0.00 in    
Sea Level Pressure  
Sea Level Pressure 29.99 in    
Wind  
Wind Speed 13 mph (South)    
Max Wind Speed 28 mph    
Max Gust Speed 36 mph    
Visibility 10 miles    
Events Rain    
T = Trace of Precipitation, MM = Missing Value Source: NWS Daily Summary

Daily Weather History Graph

Daily Weather History Graph

Search for Another Location

Airport or City:

Trip Planner

Search our weather history database for the weather conditions in past years. The results will help you decide how hot, cold, wet, or windy it might be!

Date:

Astronomy

Jan. 12, 2014 Rise Set
Actual Time 7:20 AM CST 5:33 PM CST
Civil Twilight 6:54 AM CST 6:00 PM CST
Nautical Twilight 6:24 AM CST 6:30 PM CST
Astronomical Twilight 5:54 AM CST 7:00 PM CST
Moon 3:01 PM CST (1/12) 4:21 AM CST (1/12)
Length of Visible Light 11h 06m
Length of Day
10h 12m
Waxing Gibbous, 90% of the Moon is Illuminated
Jan 12
Waxing Gibbous
Jan 15
Full
Jan 23
Last Quarter
Jan 30
New
Feb 6
First Quarter

Hourly Weather History & Observations

Time (CST) Temp. Windchill Dew Point Humidity Pressure Visibility Wind Dir Wind Speed Gust Speed Precip Events Conditions
12:53 AM 42.1 °F 38.4 °F 30.9 °F 65% 30.08 in 10.0 mi South 5.8 mph - N/A   Clear
1:53 AM 42.1 °F 37.7 °F 30.9 °F 65% 30.08 in 10.0 mi South 6.9 mph - N/A   Clear
2:53 AM 42.1 °F 38.4 °F 30.9 °F 65% 30.08 in 10.0 mi South 5.8 mph - N/A   Clear
3:53 AM 41.0 °F 37.1 °F 30.9 °F 67% 30.06 in 10.0 mi SSE 5.8 mph - N/A   Clear
4:53 AM 37.9 °F 34.4 °F 30.9 °F 76% 30.06 in 10.0 mi SSE 4.6 mph - N/A   Clear
5:53 AM 37.9 °F - 30.9 °F 76% 30.06 in 10.0 mi Calm Calm - N/A   Clear
6:53 AM 36.0 °F - 30.9 °F 82% 30.06 in 10.0 mi Calm Calm - N/A   Clear
7:53 AM 37.9 °F 33.5 °F 30.9 °F 76% 30.07 in 10.0 mi South 5.8 mph - N/A   Clear
8:53 AM 52.0 °F - 33.1 °F 49% 30.09 in 10.0 mi South 9.2 mph - N/A   Clear
9:53 AM 61.0 °F - 32.0 °F 34% 30.09 in 10.0 mi South 13.8 mph 19.6 mph N/A   Clear
10:53 AM 66.9 °F - 30.0 °F 25% 30.07 in 10.0 mi South 13.8 mph 23.0 mph N/A   Clear
11:53 AM 69.1 °F - 30.0 °F 23% 30.02 in 10.0 mi South 15.0 mph 26.5 mph N/A   Clear
12:53 PM 71.1 °F - 28.9 °F 21% 29.98 in 10.0 mi South 21.9 mph 27.6 mph N/A   Clear
1:53 PM 72.0 °F - 28.9 °F 20% 29.95 in 10.0 mi South 17.3 mph 28.8 mph N/A   Clear
2:53 PM 71.1 °F - 28.0 °F 20% 29.94 in 10.0 mi SSW 19.6 mph 27.6 mph N/A   Clear
3:53 PM 68.0 °F - 30.9 °F 25% 29.94 in 10.0 mi South 11.5 mph - N/A   Clear
4:53 PM 66.9 °F - 30.9 °F 26% 29.93 in 10.0 mi South 13.8 mph 21.9 mph N/A   Partly Cloudy
5:53 PM 64.0 °F - 34.0 °F 33% 29.91 in 10.0 mi South 16.1 mph 24.2 mph 0.00 in Rain Light Rain
6:53 PM 64.0 °F - 34.0 °F 33% 29.90 in 10.0 mi South 17.3 mph - 0.00 in   Scattered Clouds
7:53 PM 64.0 °F - 37.9 °F 38% 29.88 in 10.0 mi South 18.4 mph 27.6 mph N/A   Partly Cloudy
8:53 PM 62.1 °F - 44.1 °F 52% 29.88 in 10.0 mi South 18.4 mph 24.2 mph N/A   Mostly Cloudy
9:53 PM 61.0 °F - 46.0 °F 58% 29.88 in 10.0 mi South 23.0 mph 31.1 mph N/A   Clear
10:53 PM 61.0 °F - 48.0 °F 62% 29.85 in 10.0 mi South 23.0 mph 34.5 mph N/A   Clear
11:53 PM 62.1 °F - 48.9 °F 62% 29.85 in 10.0 mi SSW 16.1 mph 25.3 mph 0.00 in   Mostly Cloudy